Weather History for Cecil Field, FL

Change the Weather History Date:

Thursday, May 23, 2013

  Actual Average (KJAX) Record (KJAX)
Temperature  
Mean Temperature 76 °F 76 °F  
Max Temperature 89 °F 87 °F 97 °F (1953)
Min Temperature 64 °F 65 °F 48 °F (1993)
Degree Days  
Heating Degree Days 0 0  
Month to date heating degree days 3  
Since 1 July heating degree days 1347  
Cooling Degree Days 12 11  
Month to date cooling degree days 193  
Year to date cooling degree days 389  
Growing Degree Days 26 (Base 50)    
Moisture  
Dew Point 67 °F    
Average Humidity 86    
Maximum Humidity 100    
Minimum Humidity 48    
Precipitation  
Precipitation 0.00 in 0.09 in 2.87 in (1943)
Month to date precipitation 1.61  
Year to date precipitation 14.69  
Snow  
Snow 0.00 in 0.00 in 0.00 in (2002)
Month to date snowfall 0.0  
Since 1 July snowfall T  
Snow Depth -    
Sea Level Pressure  
Sea Level Pressure 29.97 in    
Wind  
Wind Speed 2 mph (West)    
Max Wind Speed 12 mph    
Max Gust Speed -    
Visibility 7 miles    
Events Fog    
T = Trace of Precipitation, MM = Missing Value Source: NWS Daily Summary

Daily Weather History Graph

Daily Weather History Graph

Search for Another Location

Airport:

Trip Planner

Search our weather history database for the weather conditions in past years. The results will help you decide how hot, cold, wet, or windy it might be!

Date:

Astronomy

May. 23, 2013 Rise Set
Actual Time 6:29 AM EDT 8:19 PM EDT
Civil Twilight 6:02 AM EDT 8:46 PM EDT
Nautical Twilight 5:30 AM EDT 9:18 PM EDT
Astronomical Twilight 4:56 AM EDT 9:52 PM EDT
Moon 6:55 PM EDT 5:05 AM EDT
Length of Visible Light 14h 43m
Length of Day
13h 50m
Waxing Gibbous, 97% of the Moon is Illuminated
May 23
Waxing Gibbous
May 25
Full
May 31
Last Quarter
Jun 8
New
Jun 16
First Quarter

Hourly Weather History & Observations

Time (EDT) Temp. Heat Index Dew Point Humidity Pressure Visibility Wind Dir Wind Speed Gust Speed Precip Events Conditions
12:15 AM 66.2 °F - 66.2 °F 100% 29.97 in 5.0 mi Calm Calm - N/A   Scattered Clouds
12:35 AM 66.2 °F - 66.2 °F 100% 29.96 in 1.5 mi Calm Calm - N/A   Scattered Clouds
12:55 AM 66.2 °F - 66.2 °F 100% 29.96 in 5.0 mi Calm Calm - N/A   Partly Cloudy
1:15 AM 66.2 °F - 66.2 °F 100% 29.96 in 7.0 mi Calm Calm - N/A   Partly Cloudy
1:35 AM 66.2 °F - 66.2 °F 100% 29.96 in 4.0 mi Calm Calm - N/A   Clear
1:55 AM 64.4 °F - 64.4 °F 100% 29.96 in 7.0 mi Calm Calm - N/A   Clear
2:15 AM 64.4 °F - 64.4 °F 100% 29.96 in 5.0 mi Calm Calm - N/A   Clear
2:35 AM 64.4 °F - 64.4 °F 100% 29.95 in 2.5 mi Calm Calm - N/A   Clear
2:55 AM 64.4 °F - 64.4 °F 100% 29.96 in 5.0 mi Calm Calm - N/A   Clear
3:15 AM 64.4 °F - 64.4 °F 100% 29.96 in 7.0 mi Calm Calm - N/A   Clear
3:35 AM 64.4 °F - 64.4 °F 100% 29.96 in 0.8 mi Calm Calm - N/A   Mist
3:55 AM 64.4 °F - 64.4 °F 100% 29.97 in 5.0 mi Calm Calm - N/A   Partly Cloudy
4:15 AM 64.4 °F - 64.4 °F 100% 29.97 in 1.2 mi Calm Calm - N/A   Overcast
4:35 AM 66.2 °F - 66.2 °F 100% 29.98 in 0.5 mi Calm Calm - N/A Fog Fog
4:55 AM 66.2 °F - 66.2 °F 100% 29.98 in 0.5 mi Calm Calm - N/A Fog Fog
5:15 AM 64.4 °F - 64.4 °F 100% 29.98 in 2.0 mi Calm Calm - N/A   Overcast
5:35 AM 66.2 °F - 66.2 °F 100% 29.98 in 1.0 mi Calm Calm - N/A   Overcast
5:55 AM 68.0 °F - 68.0 °F 100% 29.99 in 0.2 mi Calm Calm - N/A Fog Fog
6:15 AM 68.0 °F - 68.0 °F 100% 30.00 in 1.5 mi Calm Calm - N/A   Overcast
6:35 AM 68.0 °F - 68.0 °F 100% 29.99 in 10.0 mi Calm Calm - N/A   Mostly Cloudy
6:50 AM 68.0 °F - 68.0 °F 100% 29.99 in 7.0 mi WNW 4.6 mph - N/A   Mostly Cloudy
7:50 AM 69.8 °F - 69.8 °F 100% 29.98 in 10.0 mi SSE 4.6 mph - N/A   Clear
8:50 AM 73.4 °F - 69.8 °F 88% 29.99 in 10.0 mi Calm Calm - N/A   Clear
9:50 AM 78.8 °F - 68.0 °F 69% 29.99 in 10.0 mi SSW 4.6 mph - N/A   Clear
10:50 AM 82.4 °F 86.3 °F 69.8 °F 66% 29.99 in 10.0 mi SSW 8.1 mph - N/A   Clear
11:50 AM 84.2 °F 87.3 °F 68.0 °F 58% 30.00 in 10.0 mi West 11.5 mph - N/A   Partly Cloudy
12:50 PM 86.0 °F 89.4 °F 68.0 °F 55% 29.99 in 10.0 mi West 8.1 mph - N/A   Partly Cloudy
1:50 PM 87.8 °F 91.4 °F 68.0 °F 52% 29.98 in 10.0 mi WNW 10.4 mph - N/A   Scattered Clouds
2:50 PM 89.6 °F 93.4 °F 68.0 °F 49% 29.96 in 10.0 mi NNW 8.1 mph - N/A   Mostly Cloudy
3:50 PM 86.0 °F 89.4 °F 68.0 °F 55% 29.94 in 10.0 mi NNW 10.4 mph - N/A   Mostly Cloudy
4:50 PM 89.6 °F 93.4 °F 68.0 °F 49% 29.93 in 10.0 mi NNW 8.1 mph - N/A   Scattered Clouds
5:50 PM 87.8 °F 90.4 °F 66.2 °F 49% 29.92 in 10.0 mi West 8.1 mph - N/A   Scattered Clouds
6:50 PM - - - N/A% 29.92 in 10.0 mi West 10.4 mph - N/A   Scattered Clouds
7:50 PM 86.0 °F 87.3 °F 64.4 °F 48% 29.92 in 10.0 mi WNW 10.4 mph - N/A   Scattered Clouds
8:15 PM 82.4 °F 84.6 °F 66.2 °F 58% 29.94 in 10.0 mi WNW 4.6 mph - N/A   Clear
8:35 PM 78.8 °F - 68.0 °F 69% 29.94 in 10.0 mi Calm Calm - N/A   Clear
8:55 PM 75.2 °F - 68.0 °F 78% 29.95 in 10.0 mi Calm Calm - N/A   Clear
9:15 PM 73.4 °F - 68.0 °F 83% 29.97 in 10.0 mi Calm Calm - N/A   Clear
9:35 PM 71.6 °F - 68.0 °F 88% 29.97 in 10.0 mi Calm Calm - N/A   Clear
9:55 PM 69.8 °F - 68.0 °F 94% 29.98 in 10.0 mi Calm Calm - N/A   Clear
10:15 PM 68.0 °F - 66.2 °F 94% 29.98 in 10.0 mi Calm Calm - N/A   Clear
10:35 PM 68.0 °F - 66.2 °F 94% 29.99 in 10.0 mi Calm Calm - N/A   Clear
10:55 PM 68.0 °F - 66.2 °F 94% 29.99 in 10.0 mi Calm Calm - N/A   Clear
11:15 PM 68.0 °F - 66.2 °F 94% 29.99 in 10.0 mi Calm Calm - N/A   Clear
11:35 PM 66.2 °F - 66.2 °F 100% 29.98 in 8.0 mi Calm Calm - N/A   Clear
11:55 PM 66.2 °F - 66.2 °F 100% 29.99 in 9.0 mi South 3.5 mph - N/A   Clear